,,,PA_Meas_PMT16A,,PR_Meas_QMR101_102,,RH_Meas_QMH101,,SR_Meas_QMS101,,TA_Meas_QMH101,,GenWind,,GenWind,
date,time,status,PA,status,PR,status,RH,status,SR,status,TA,status,DirAvg,status,SpdAvg,
2012-01-16, 00:00:04,VALID,1002.65,VALID,0,VALID,89.9292,VALID,0,VALID,24.7159,VALID,337,VALID,0.08125,
2012-01-16, 00:01:04,VALID,1002.65,VALID,0,VALID,89.8682,VALID,0,VALID,24.7353,VALID,337,VALID,0,
2012-01-16, 00:02:04,VALID,1002.64,VALID,0,VALID,89.8224,VALID,0,VALID,24.7548,VALID,337,VALID,0.0382813,
2012-01-16, 00:03:04,VALID,1002.65,VALID,0,VALID,89.769,VALID,0,VALID,24.7529,VALID,337,VALID,0,
2012-01-16, 00:04:04,VALID,1002.63,VALID,0,VALID,89.6775,VALID,0,VALID,24.7743,VALID,337,VALID,0.247656,
2012-01-16, 00:05:04,VALID,1002.62,VALID,0,VALID,89.5859,VALID,0,VALID,24.7937,VALID,337,VALID,0,
2012-01-16, 00:06:04,VALID,1002.62,VALID,0,VALID,89.5325,VALID,0,VALID,24.8132,VALID,303,VALID,0.363281,
2012-01-16, 00:07:04,VALID,1002.6,VALID,0,VALID,89.2732,VALID,0,VALID,24.8522,VALID,304,VALID,0.05,
2012-01-16, 00:08:04,VALID,1002.58,VALID,0,VALID,89.1969,VALID,0,VALID,24.8716,VALID,316,VALID,0.394922,
2012-01-16, 00:09:04,VALID,1002.57,VALID,0,VALID,89.0138,VALID,0,VALID,24.8911,VALID,319,VALID,0.389453,
2012-01-16, 00:10:04,VALID,1002.54,VALID,0,VALID,88.9451,VALID,0,VALID,24.9125,VALID,319,VALID,0.511719,
2012-01-16, 00:11:04,VALID,1002.51,VALID,0,VALID,89.0672,VALID,0,VALID,24.9106,VALID,329,VALID,0.465625,
2012-01-16, 00:12:04,VALID,1002.5,VALID,0,VALID,88.8459,VALID,0,VALID,24.8911,VALID,329,VALID,0.610937,
2012-01-16, 00:13:04,VALID,1002.52,VALID,0,VALID,88.8078,VALID,0,VALID,24.8911,VALID,341,VALID,0.73125,
2012-01-16, 00:14:04,VALID,1002.48,VALID,0,VALID,88.968,VALID,0,VALID,24.8911,VALID,342,VALID,0.732422,
2012-01-16, 00:15:04,VALID,1002.48,VALID,0,VALID,89.0901,VALID,0,VALID,24.8911,VALID,348,VALID,0.605469,
2012-01-16, 00:16:04,VALID,1002.49,VALID,0,VALID,89.1816,VALID,0,VALID,24.8503,VALID,347,VALID,0.597266,
2012-01-16, 00:17:04,VALID,1002.48,VALID,0,VALID,89.296,VALID,0,VALID,24.8113,VALID,345,VALID,0.670703,
2012-01-16, 00:18:04,VALID,1002.47,VALID,0,VALID,89.4868,VALID,0,VALID,24.7919,VALID,345,VALID,0.520703,
2012-01-16, 00:19:04,VALID,1002.44,VALID,0,VALID,89.6775,VALID,0.0815089,VALID,24.7529,VALID,345,VALID,0.628516,
2012-01-16, 00:20:04,VALID,1002.44,VALID,0,VALID,89.769,VALID,0.0815089,VALID,24.7335,VALID,345,VALID,0.558594,
2012-01-16, 00:21:04,VALID,1002.41,VALID,0,VALID,89.8377,VALID,0.0815089,VALID,24.714,VALID,345,VALID,0.428516,
2012-01-16, 00:22:04,VALID,1002.4,VALID,0,VALID,90.0132,VALID,0.0815089,VALID,24.6945,VALID,345,VALID,0.463281,
2012-01-16, 00:23:04,VALID,1002.39,VALID,0,VALID,90.1429,VALID,0.0815089,VALID,24.6945,VALID,345,VALID,0.521094,
2012-01-16, 00:24:04,VALID,1002.35,VALID,0,VALID,90.2039,VALID,0.0815089,VALID,24.675,VALID,345,VALID,0.428516,
2012-01-16, 00:25:04,VALID,1002.3,VALID,0,VALID,90.242,VALID,0,VALID,24.6556,VALID,345,VALID,0.210938,
2012-01-16, 00:26:04,VALID,1002.28,VALID,0,VALID,90.3107,VALID,0.0815089,VALID,24.5953,VALID,345,VALID,0.00429688,
2012-01-16, 00:27:04,VALID,1002.26,VALID,0,VALID,90.4785,VALID,0,VALID,24.5972,VALID,345,VALID,0,
2012-01-16, 00:28:04,VALID,1002.23,VALID,0,VALID,90.6006,VALID,0,VALID,24.5582,VALID,345,VALID,0,
2012-01-16, 00:29:04,VALID,1002.24,VALID,0,VALID,90.7226,VALID,0,VALID,24.5582,VALID,345,VALID,0,
2012-01-16, 00:30:04,VALID,1002.2,VALID,0,VALID,90.8523,VALID,0,VALID,24.5406,VALID,345,VALID,0,
2012-01-16, 00:31:04,VALID,1002.23,VALID,0,VALID,90.9057,VALID,0,VALID,24.5193,VALID,345,VALID,0,
2012-01-16, 00:32:04,VALID,1002.24,VALID,0,VALID,90.9591,VALID,0,VALID,24.4804,VALID,345,VALID,0,
2012-01-16, 00:33:04,VALID,1002.23,VALID,0,VALID,91.1804,VALID,0.0815089,VALID,24.5017,VALID,345,VALID,0,
2012-01-16, 00:34:04,VALID,1002.26,VALID,0,VALID,91.2414,VALID,0.0815089,VALID,24.4804,VALID,345,VALID,0.0234375,
2012-01-16, 00:35:04,VALID,1002.24,VALID,0,VALID,91.2872,VALID,0.0815089,VALID,24.4804,VALID,345,VALID,0,
2012-01-16, 00:36:04,VALID,1002.25,VALID,0,VALID,91.3177,VALID,0.0815089,VALID,24.4804,VALID,345,VALID,0,
2012-01-16, 00:37:04,VALID,1002.27,VALID,0,VALID,91.3482,VALID,0,VALID,24.4609,VALID,345,VALID,0,
2012-01-16, 00:38:04,VALID,1002.23,VALID,0,VALID,91.4703,VALID,0,VALID,24.4414,VALID,345,VALID,0.626953,
2012-01-16, 00:39:04,VALID,1002.23,VALID,0,VALID,91.6839,VALID,0.0815089,VALID,24.4414,VALID,349,VALID,0.576172,
2012-01-16, 00:40:04,VALID,1002.25,VALID,0,VALID,91.722,VALID,0,VALID,24.4998,VALID,351,VALID,0.651953,
2012-01-16, 00:41:04,VALID,1002.25,VALID,0,VALID,91.6152,VALID,0.0815089,VALID,24.4998,VALID,348,VALID,0.564453,
2012-01-16, 00:42:04,VALID,1002.26,VALID,0,VALID,91.5313,VALID,0.0815089,VALID,24.5388,VALID,2,VALID,0.773438,
2012-01-16, 00:43:04,VALID,1002.27,VALID,0,VALID,91.4092,VALID,0.0815089,VALID,24.5582,VALID,1,VALID,0.425781,
2012-01-16, 00:44:04,VALID,1002.27,VALID,0,VALID,91.2567,VALID,0.0815089,VALID,24.5972,VALID,1,VALID,0.476953,
2012-01-16, 00:45:04,VALID,1002.27,VALID,0,VALID,91.0278,VALID,0,VALID,24.638,VALID,349,VALID,0.673828,
2012-01-16, 00:46:04,VALID,1002.29,VALID,0,VALID,90.8295,VALID,0,VALID,24.6769,VALID,351,VALID,0.653125,
2012-01-16, 00:47:04,VALID,1002.3,VALID,0,VALID,90.6845,VALID,0,VALID,24.6964,VALID,352,VALID,0.0148437,
2012-01-16, 00:48:04,VALID,1002.28,VALID,0,VALID,90.5701,VALID,0,VALID,24.7159,VALID,353,VALID,0.53125,
2012-01-16, 00:49:04,VALID,1002.3,VALID,0,VALID,90.448,VALID,0,VALID,24.7548,VALID,352,VALID,0.473047,
2012-01-16, 00:50:04,VALID,1002.31,VALID,0,VALID,90.3717,VALID,0,VALID,24.7743,VALID,352,VALID,0.237891,
2012-01-16, 00:51:04,VALID,1002.32,VALID,0,VALID,90.2344,VALID,0,VALID,24.7937,VALID,351,VALID,0.239844,
2012-01-16, 00:52:04,VALID,1002.3,VALID,0,VALID,90.0666,VALID,0,VALID,24.8132,VALID,351,VALID,0.0355469,
2012-01-16, 00:53:04,VALID,1002.29,VALID,0,VALID,89.9292,VALID,0,VALID,24.7919,VALID,338,VALID,0.294922,
2012-01-16, 00:54:04,VALID,1002.26,VALID,0,VALID,89.9445,VALID,0,VALID,24.8735,VALID,339,VALID,0,
2012-01-16, 00:55:04,VALID,1002.23,VALID,0,VALID,89.7538,VALID,0,VALID,24.8716,VALID,346,VALID,0.517578,
2012-01-16, 00:56:04,VALID,1002.21,VALID,0,VALID,89.7309,VALID,0,VALID,24.8911,VALID,345,VALID,0.453906,
2012-01-16, 00:57:04,VALID,1002.2,VALID,0,VALID,89.5554,VALID,0,VALID,24.93,VALID,338,VALID,0.150391,
2012-01-16, 00:58:04,VALID,1002.2,VALID,0,VALID,89.4791,VALID,0,VALID,24.93,VALID,335,VALID,0.4125,
2012-01-16, 00:59:04,VALID,1002.2,VALID,0,VALID,89.3189,VALID,0,VALID,24.9495,VALID,335,VALID,0.290625,
2012-01-16, 01:00:04,VALID,1002.2,VALID,0,VALID,89.2274,VALID,0,VALID,24.9671,VALID,335,VALID,0.439063,
2012-01-16, 01:01:04,VALID,1002.19,VALID,0,VALID,89.1816,VALID,0,VALID,24.9866,VALID,335,VALID,0.00117188,
2012-01-16, 01:02:04,VALID,1002.18,VALID,0,VALID,89.0367,VALID,0,VALID,25.006,VALID,319,VALID,0.551953,
2012-01-16, 01:03:04,VALID,1002.18,VALID,0,VALID,88.8231,VALID,0,VALID,25.0255,VALID,319,VALID,0.0289063,
2012-01-16, 01:04:04,VALID,1002.15,VALID,0,VALID,88.8231,VALID,0,VALID,25.045,VALID,319,VALID,0.15,
2012-01-16, 01:05:04,VALID,1002.13,VALID,0,VALID,88.8154,VALID,0,VALID,25.0644,VALID,319,VALID,0.239453,
2012-01-16, 01:06:04,VALID,1002.13,VALID,0,VALID,88.7162,VALID,0,VALID,25.0858,VALID,319,VALID,0,
2012-01-16, 01:07:04,VALID,1002.14,VALID,0,VALID,88.5713,VALID,0,VALID,25.0858,VALID,319,VALID,0,
2012-01-16, 01:08:04,VALID,1002.11,VALID,0,VALID,88.5637,VALID,0,VALID,25.0858,VALID,319,VALID,0,
2012-01-16, 01:09:04,VALID,1002.09,VALID,0,VALID,88.6018,VALID,0,VALID,25.0839,VALID,319,VALID,0,
2012-01-16, 01:10:04,VALID,1002.09,VALID,0,VALID,88.5484,VALID,0,VALID,25.0839,VALID,281,VALID,0.255859,
2012-01-16, 01:11:04,VALID,1002.06,VALID,0,VALID,88.4798,VALID,0,VALID,25.1034,VALID,281,VALID,0.194141,
2012-01-16, 01:12:04,VALID,1002.05,VALID,0,VALID,88.5332,VALID,0,VALID,25.1229,VALID,300,VALID,0.800391,
2012-01-16, 01:13:04,VALID,1002.07,VALID,0,VALID,88.6247,VALID,0,VALID,25.1637,VALID,299,VALID,0.334375,
2012-01-16, 01:14:04,VALID,1002.06,VALID,0,VALID,88.64,VALID,0,VALID,25.1618,VALID,325,VALID,0.333984,
2012-01-16, 01:15:04,VALID,1002.02,VALID,0,VALID,88.5484,VALID,0,VALID,25.1813,VALID,328,VALID,0.333594,
2012-01-16, 01:16:04,VALID,1002.04,VALID,0,VALID,88.5103,VALID,0,VALID,25.2221,VALID,286,VALID,0.321094,
2012-01-16, 01:17:04,VALID,1002.03,VALID,0,VALID,88.3043,VALID,0,VALID,25.2397,VALID,280,VALID,0.710156,
2012-01-16, 01:18:04,VALID,1002.03,VALID,0,VALID,88.3958,VALID,0,VALID,25.2397,VALID,280,VALID,0,
2012-01-16, 01:19:04,VALID,1002.01,VALID,0,VALID,88.1441,VALID,0,VALID,25.2806,VALID,282,VALID,0.512109,
2012-01-16, 01:20:04,VALID,1002.01,VALID,0,VALID,87.6558,VALID,0,VALID,25.2786,VALID,292,VALID,1.20664,
2012-01-16, 01:21:04,VALID,1002.03,VALID,0,VALID,87.6177,VALID,0,VALID,25.2981,VALID,308,VALID,1.61719,
2012-01-16, 01:22:04,VALID,1002.03,VALID,0,VALID,87.6863,VALID,0,VALID,25.3176,VALID,284,VALID,0.536719,
2012-01-16, 01:23:04,VALID,1002.01,VALID,0,VALID,87.6787,VALID,0,VALID,25.337,VALID,286,VALID,0.855078,
2012-01-16, 01:24:04,VALID,1001.99,VALID,0,VALID,87.8847,VALID,0,VALID,25.376,VALID,331,VALID,0.570703,
2012-01-16, 01:25:04,VALID,1001.99,VALID,0,VALID,87.816,VALID,0,VALID,25.4169,VALID,284,VALID,0.661328,
2012-01-16, 01:26:04,VALID,1002.01,VALID,0,VALID,87.9305,VALID,0,VALID,25.4149,VALID,301,VALID,0.647656,
2012-01-16, 01:27:04,VALID,1002.03,VALID,0,VALID,87.961,VALID,0.0815089,VALID,25.4344,VALID,272,VALID,0.218359,
2012-01-16, 01:28:04,VALID,1002.01,VALID,0,VALID,87.8542,VALID,0,VALID,25.4344,VALID,308,VALID,0.685938,
2012-01-16, 01:29:04,VALID,1002.03,VALID,0,VALID,87.6635,VALID,0,VALID,25.4753,VALID,278,VALID,1.20234,
2012-01-16, 01:30:04,VALID,1002,VALID,0,VALID,87.7245,VALID,0,VALID,25.4928,VALID,299,VALID,0.947266,
2012-01-16, 01:31:04,VALID,1002.01,VALID,0,VALID,87.6177,VALID,0,VALID,25.4928,VALID,280,VALID,0.63125,
2012-01-16, 01:32:04,VALID,1001.99,VALID,0,VALID,87.549,VALID,0,VALID,25.4928,VALID,293,VALID,0.791797,
2012-01-16, 01:33:04,VALID,1001.98,VALID,0,VALID,87.5795,VALID,0,VALID,25.5337,VALID,299,VALID,0.678906,
2012-01-16, 01:34:04,VALID,1001.96,VALID,0,VALID,87.1828,VALID,0,VALID,25.5532,VALID,286,VALID,2.18828,
2012-01-16, 01:35:04,VALID,1001.94,VALID,0,VALID,87.221,VALID,0,VALID,25.5298,VALID,272,VALID,1.36094,
2012-01-16, 01:36:04,VALID,1001.95,VALID,0,VALID,87.3736,VALID,0,VALID,25.5921,VALID,274,VALID,0.384766,
2012-01-16, 01:37:04,VALID,1001.96,VALID,0,VALID,87.4193,VALID,0,VALID,25.6116,VALID,312,VALID,0.798828,
2012-01-16, 01:38:04,VALID,1001.96,VALID,0,VALID,87.3278,VALID,0,VALID,25.6097,VALID,266,VALID,1.11094,
2012-01-16, 01:39:04,VALID,1001.93,VALID,0,VALID,87.4346,VALID,0,VALID,25.6116,VALID,218,VALID,0.931641,
2012-01-16, 01:40:04,VALID,1001.92,VALID,0,VALID,87.1905,VALID,0,VALID,25.6116,VALID,238,VALID,1.1082,
2012-01-16, 01:41:04,VALID,1001.92,VALID,0,VALID,87.3125,VALID,0,VALID,25.5727,VALID,211,VALID,1.00547,
2012-01-16, 01:42:04,VALID,1001.93,VALID,0,VALID,87.2439,VALID,0,VALID,25.5318,VALID,211,VALID,0.601953,
2012-01-16, 01:43:04,VALID,1001.93,VALID,0,VALID,87.16,VALID,0,VALID,25.5123,VALID,214,VALID,0.651953,
2012-01-16, 01:44:04,VALID,1001.89,VALID,0,VALID,86.9235,VALID,0,VALID,25.5337,VALID,247,VALID,1.06562,
2012-01-16, 01:45:04,VALID,1001.83,VALID,0,VALID,86.9464,VALID,0,VALID,25.5142,VALID,234,VALID,0.50625,
2012-01-16, 01:46:04,VALID,1001.8,VALID,0,VALID,86.9006,VALID,0,VALID,25.4928,VALID,232,VALID,0.697266,
2012-01-16, 01:47:04,VALID,1001.75,VALID,0,VALID,86.1529,VALID,0,VALID,25.4753,VALID,263,VALID,1.78633,
2012-01-16, 01:48:04,VALID,1001.7,VALID,0,VALID,86.2369,VALID,0,VALID,25.4753,VALID,227,VALID,0.580859,
2012-01-16, 01:49:04,VALID,1001.68,VALID,0,VALID,86.1377,VALID,0,VALID,25.4753,VALID,234,VALID,1.64648,
2012-01-16, 01:50:04,VALID,1001.65,VALID,0,VALID,86.4047,VALID,0,VALID,25.4363,VALID,223,VALID,0.671484,
2012-01-16, 01:51:04,VALID,1001.63,VALID,0,VALID,86.6641,VALID,0,VALID,25.4363,VALID,208,VALID,0.545313,
2012-01-16, 01:52:04,VALID,1001.57,VALID,0,VALID,86.3055,VALID,0,VALID,25.376,VALID,239,VALID,1.20664,
2012-01-16, 01:53:04,VALID,1001.56,VALID,0,VALID,86.2064,VALID,0,VALID,25.3176,VALID,172,VALID,1.97539,
2012-01-16, 01:54:04,VALID,1001.5,VALID,0,VALID,86.5115,VALID,0,VALID,25.2592,VALID,197,VALID,0.653906,
2012-01-16, 01:55:04,VALID,1001.54,VALID,0,VALID,86.4657,VALID,0,VALID,25.2611,VALID,199,VALID,1.54062,
2012-01-16, 01:56:04,VALID,1001.54,VALID,0,VALID,86.1911,VALID,0,VALID,25.2416,VALID,224,VALID,0.847656,
2012-01-16, 01:57:04,VALID,1001.51,VALID,0,VALID,86.2064,VALID,0,VALID,25.1813,VALID,135,VALID,0.046875,
2012-01-16, 01:58:04,VALID,1001.53,VALID,0,VALID,86.1529,VALID,0,VALID,25.1832,VALID,148,VALID,0.277344,
2012-01-16, 01:59:04,VALID,1001.55,VALID,0,VALID,86.2216,VALID,0,VALID,25.1832,VALID,260,VALID,0.357812,
2012-01-16, 02:00:04,VALID,1001.53,VALID,0,VALID,86.336,VALID,0,VALID,25.1423,VALID,202,VALID,0.411719,
2012-01-16, 02:01:04,VALID,1001.57,VALID,0,VALID,86.2445,VALID,0,VALID,25.1423,VALID,203,VALID,0.432031,
2012-01-16, 02:02:04,VALID,1001.58,VALID,0,VALID,86.5725,VALID,0,VALID,25.1423,VALID,292,VALID,0.534766,
2012-01-16, 02:03:04,VALID,1001.58,VALID,0,VALID,86.5191,VALID,0,VALID,25.1637,VALID,288,VALID,0.348437,
2012-01-16, 02:04:04,VALID,1001.56,VALID,0,VALID,86.8929,VALID,0,VALID,25.1423,VALID,243,VALID,0.766406,
2012-01-16, 02:05:04,VALID,1001.58,VALID,0,VALID,87.2286,VALID,0,VALID,25.1618,VALID,189,VALID,0.739453,
2012-01-16, 02:06:04,VALID,1001.59,VALID,0,VALID,87.4041,VALID,0,VALID,25.1832,VALID,200,VALID,0.541797,
2012-01-16, 02:07:04,VALID,1001.61,VALID,0,VALID,87.6177,VALID,0,VALID,25.1423,VALID,226,VALID,0.949609,
2012-01-16, 02:08:04,VALID,1001.57,VALID,0,VALID,87.7855,VALID,0,VALID,25.1423,VALID,246,VALID,0.569141,
2012-01-16, 02:09:04,VALID,1001.57,VALID,0,VALID,87.8237,VALID,0,VALID,25.1637,VALID,191,VALID,0.426953,
2012-01-16, 02:10:04,VALID,1001.55,VALID,0,VALID,87.8847,VALID,0,VALID,25.1229,VALID,192,VALID,0.2,
2012-01-16, 02:11:04,VALID,1001.56,VALID,0,VALID,87.7474,VALID,0,VALID,25.1423,VALID,204,VALID,0.446484,
2012-01-16, 02:12:04,VALID,1001.55,VALID,0,VALID,87.4804,VALID,0,VALID,25.1229,VALID,232,VALID,0.805078,
2012-01-16, 02:13:04,VALID,1001.54,VALID,0,VALID,87.3278,VALID,0,VALID,25.1229,VALID,237,VALID,0.704297,
2012-01-16, 02:14:04,VALID,1001.52,VALID,0,VALID,87.1371,VALID,0,VALID,25.1423,VALID,209,VALID,0.916016,
2012-01-16, 02:15:04,VALID,1001.5,VALID,0,VALID,86.9387,VALID,0,VALID,25.1423,VALID,244,VALID,0.406641,
2012-01-16, 02:16:04,VALID,1001.48,VALID,0,VALID,86.9082,VALID,0,VALID,25.1618,VALID,244,VALID,0.123828,
2012-01-16, 02:17:04,VALID,1001.47,VALID,0,VALID,86.4886,VALID,0,VALID,25.1618,VALID,244,VALID,0.797266,
2012-01-16, 02:18:04,VALID,1001.42,VALID,0,VALID,86.0004,VALID,0,VALID,25.1813,VALID,146,VALID,0.587891,
2012-01-16, 02:19:04,VALID,1001.42,VALID,0,VALID,86.1529,VALID,0,VALID,25.1813,VALID,164,VALID,0.155859,
2012-01-16, 02:20:04,VALID,1001.39,VALID,0,VALID,86.1758,VALID,0,VALID,25.1618,VALID,164,VALID,0.251172,
2012-01-16, 02:21:04,VALID,1001.38,VALID,0,VALID,86.2903,VALID,0,VALID,25.1832,VALID,164,VALID,0,
2012-01-16, 02:22:04,VALID,1001.36,VALID,0,VALID,86.2064,VALID,0,VALID,25.1423,VALID,170,VALID,0.00585938,
2012-01-16, 02:23:04,VALID,1001.35,VALID,0,VALID,86.069,VALID,0,VALID,25.1442,VALID,171,VALID,0.455859,
2012-01-16, 02:24:04,VALID,1001.34,VALID,0,VALID,86.1301,VALID,0,VALID,25.1248,VALID,171,VALID,0.133594,
2012-01-16, 02:25:04,VALID,1001.34,VALID,0,VALID,86.0919,VALID,0,VALID,25.1248,VALID,171,VALID,0.222266,
2012-01-16, 02:26:04,VALID,1001.36,VALID,0,VALID,86.1987,VALID,0,VALID,25.0644,VALID,171,VALID,0,
2012-01-16, 02:27:04,VALID,1001.35,VALID,0,VALID,86.2292,VALID,0,VALID,25.0858,VALID,309,VALID,0.546484,
2012-01-16, 02:28:04,VALID,1001.36,VALID,0,VALID,86.0309,VALID,0,VALID,25.0839,VALID,297,VALID,0.143359,
2012-01-16, 02:29:04,VALID,1001.35,VALID,0,VALID,86.0461,VALID,0,VALID,25.0644,VALID,297,VALID,0,
2012-01-16, 02:30:04,VALID,1001.31,VALID,0,VALID,86.1911,VALID,0,VALID,25.045,VALID,297,VALID,0,
2012-01-16, 02:31:04,VALID,1001.29,VALID,0,VALID,86.1682,VALID,0,VALID,25.045,VALID,297,VALID,0.00117188,
2012-01-16, 02:32:04,VALID,1001.25,VALID,0,VALID,86.1911,VALID,0,VALID,25.0255,VALID,297,VALID,0.176172,
2012-01-16, 02:33:04,VALID,1001.21,VALID,0,VALID,86.2979,VALID,0,VALID,25.0255,VALID,297,VALID,0,
2012-01-16, 02:34:04,VALID,1001.19,VALID,0,VALID,86.542,VALID,0,VALID,25.0255,VALID,297,VALID,0,
2012-01-16, 02:35:04,VALID,1001.2,VALID,0,VALID,86.8777,VALID,0,VALID,25.006,VALID,297,VALID,0,
2012-01-16, 02:36:04,VALID,1001.19,VALID,0,VALID,87.3049,VALID,0,VALID,24.9866,VALID,297,VALID,0,
2012-01-16, 02:37:04,VALID,1001.12,VALID,0,VALID,87.6635,VALID,0,VALID,24.969,VALID,297,VALID,0.3375,
2012-01-16, 02:38:04,VALID,1001.13,VALID,0,VALID,87.9305,VALID,0,VALID,24.8892,VALID,297,VALID,0.384375,
2012-01-16, 02:39:04,VALID,1001.09,VALID,0,VALID,88.1441,VALID,0,VALID,24.8308,VALID,297,VALID,0.489062,
2012-01-16, 02:40:04,VALID,1001.07,VALID,0,VALID,88.5255,VALID,0,VALID,24.8308,VALID,323,VALID,0.660547,
2012-01-16, 02:41:04,VALID,1001.05,VALID,0,VALID,88.8154,VALID,0,VALID,24.7919,VALID,323,VALID,0.584766,
2012-01-16, 02:42:04,VALID,1001.03,VALID,0,VALID,88.9222,VALID,0,VALID,24.7335,VALID,323,VALID,0.591406,
2012-01-16, 02:43:04,VALID,1001.01,VALID,0,VALID,89.1206,VALID,0,VALID,24.6945,VALID,326,VALID,0.531641,
2012-01-16, 02:44:04,VALID,1001.01,VALID,0,VALID,89.3418,VALID,0,VALID,24.675,VALID,331,VALID,0.376563,
2012-01-16, 02:45:04,VALID,1001.03,VALID,0,VALID,89.5554,VALID,0,VALID,24.6361,VALID,331,VALID,0.188281,
2012-01-16, 02:46:04,VALID,1001.01,VALID,0,VALID,89.7233,VALID,0,VALID,24.6361,VALID,331,VALID,0,
2012-01-16, 02:47:04,VALID,1001.01,VALID,0,VALID,89.8072,VALID,0,VALID,24.6361,VALID,331,VALID,0.0128906,
2012-01-16, 02:48:04,VALID,1001.02,VALID,0,VALID,89.8987,VALID,0,VALID,24.6342,VALID,331,VALID,0.0125,
2012-01-16, 02:49:04,VALID,1001.02,VALID,0,VALID,89.9369,VALID,0,VALID,24.675,VALID,331,VALID,0.11875,
2012-01-16, 02:50:04,VALID,1000.99,VALID,0,VALID,89.8301,VALID,0,VALID,24.675,VALID,340,VALID,0.542578,
2012-01-16, 02:51:04,VALID,1000.99,VALID,0,VALID,89.7004,VALID,0,VALID,24.6964,VALID,345,VALID,0.68125,
2012-01-16, 02:52:04,VALID,1000.97,VALID,0,VALID,89.6393,VALID,0,VALID,24.6945,VALID,344,VALID,0.79375,
2012-01-16, 02:53:04,VALID,1001.02,VALID,0,VALID,89.5707,VALID,0.0815089,VALID,24.6945,VALID,355,VALID,0.631641,
2012-01-16, 02:54:04,VALID,1001.04,VALID,0,VALID,89.708,VALID,0,VALID,24.6945,VALID,351,VALID,0.621094,
2012-01-16, 02:55:04,VALID,1001.03,VALID,0,VALID,89.5249,VALID,0.0815089,VALID,24.714,VALID,350,VALID,0.406641,
2012-01-16, 02:56:04,VALID,1001.03,VALID,0,VALID,89.7233,VALID,0,VALID,24.714,VALID,350,VALID,0.5375,
2012-01-16, 02:57:04,VALID,1001.03,VALID,0,VALID,89.853,VALID,0,VALID,24.6945,VALID,350,VALID,0.401172,
2012-01-16, 02:58:04,VALID,1001.04,VALID,0,VALID,89.8682,VALID,0,VALID,24.6945,VALID,352,VALID,0.528906,
2012-01-16, 02:59:04,VALID,1001.06,VALID,0,VALID,89.9674,VALID,0,VALID,24.6537,VALID,352,VALID,0.734766,
2012-01-16, 03:00:04,VALID,1001.06,VALID,0,VALID,89.914,VALID,0,VALID,24.675,VALID,350,VALID,0.540234,
2012-01-16, 03:01:04,VALID,1001.06,VALID,0,VALID,90.12,VALID,0,VALID,24.6964,VALID,347,VALID,0.510547,
2012-01-16, 03:02:04,VALID,1001.09,VALID,0,VALID,90.0666,VALID,0,VALID,24.6964,VALID,346,VALID,0.384375,
2012-01-16, 03:03:04,VALID,1001.09,VALID,0,VALID,90.0666,VALID,0,VALID,24.675,VALID,340,VALID,0.539063,
2012-01-16, 03:04:04,VALID,1001.07,VALID,0,VALID,90.036,VALID,0,VALID,24.6945,VALID,340,VALID,0.565234,
2012-01-16, 03:05:04,VALID,1001.09,VALID,0,VALID,90.0208,VALID,0.0815089,VALID,24.7159,VALID,342,VALID,0.526953,
2012-01-16, 03:06:04,VALID,1001.11,VALID,0,VALID,89.9826,VALID,0,VALID,24.6945,VALID,342,VALID,0.394531,
2012-01-16, 03:07:04,VALID,1001.09,VALID,0,VALID,90.0742,VALID,0,VALID,24.714,VALID,343,VALID,0.230469,
2012-01-16, 03:08:04,VALID,1001.08,VALID,0,VALID,90.0742,VALID,0,VALID,24.6926,VALID,343,VALID,0,
2012-01-16, 03:09:04,VALID,1001.09,VALID,0,VALID,90.1047,VALID,0,VALID,24.7548,VALID,343,VALID,0,
2012-01-16, 03:10:04,VALID,1001.07,VALID,0,VALID,90.0208,VALID,0.0815089,VALID,24.7335,VALID,343,VALID,0.432813,
2012-01-16, 03:11:04,VALID,1001.06,VALID,0,VALID,89.9369,VALID,0,VALID,24.7548,VALID,348,VALID,0.348437,
2012-01-16, 03:12:04,VALID,1001.06,VALID,0,VALID,89.8911,VALID,0,VALID,24.7529,VALID,348,VALID,0.104297,
2012-01-16, 03:13:04,VALID,1001.05,VALID,0,VALID,89.8072,VALID,0,VALID,24.7743,VALID,348,VALID,0,
2012-01-16, 03:14:04,VALID,1001.03,VALID,0,VALID,89.8453,VALID,0,VALID,24.7529,VALID,348,VALID,0.113672,
2012-01-16, 03:15:04,VALID,1001.01,VALID,0,VALID,89.8682,VALID,0,VALID,24.7335,VALID,348,VALID,0,
2012-01-16, 03:16:04,VALID,1000.99,VALID,0,VALID,89.8453,VALID,0,VALID,24.7529,VALID,348,VALID,0,
2012-01-16, 03:17:04,VALID,1001,VALID,0,VALID,89.8453,VALID,0.0815089,VALID,24.7316,VALID,348,VALID,0,
2012-01-16, 03:18:04,VALID,1000.96,VALID,0,VALID,89.7996,VALID,0,VALID,24.7548,VALID,348,VALID,0,
2012-01-16, 03:19:04,VALID,1000.95,VALID,0,VALID,89.8682,VALID,0.0815089,VALID,24.7335,VALID,348,VALID,0,
2012-01-16, 03:20:04,VALID,1000.95,VALID,0,VALID,89.914,VALID,0,VALID,24.7548,VALID,348,VALID,0.400781,
2012-01-16, 03:21:04,VALID,1000.95,VALID,0,VALID,89.9216,VALID,0,VALID,24.7335,VALID,348,VALID,0.387109,
2012-01-16, 03:22:04,VALID,1000.95,VALID,0,VALID,89.9064,VALID,0.0815089,VALID,24.714,VALID,348,VALID,0.257031,
2012-01-16, 03:23:04,VALID,1000.97,VALID,0,VALID,89.8911,VALID,0.0815089,VALID,24.6945,VALID,348,VALID,0,
2012-01-16, 03:24:04,VALID,1000.96,VALID,0,VALID,89.9521,VALID,0,VALID,24.675,VALID,348,VALID,0.132813,
2012-01-16, 03:25:04,VALID,1000.96,VALID,0,VALID,90.0818,VALID,0,VALID,24.675,VALID,348,VALID,0.318359,
2012-01-16, 03:26:04,VALID,1001.01,VALID,0,VALID,90.3488,VALID,0,VALID,24.6945,VALID,348,VALID,0.343359,
2012-01-16, 03:27:04,VALID,1001,VALID,0,VALID,90.4404,VALID,0,VALID,24.675,VALID,348,VALID,0.31875,
2012-01-16, 03:28:04,VALID,1001.02,VALID,0,VALID,90.593,VALID,0.0815089,VALID,24.6556,VALID,348,VALID,0.235938,
2012-01-16, 03:29:04,VALID,1000.99,VALID,0,VALID,90.5853,VALID,0,VALID,24.6361,VALID,348,VALID,0.188281,
2012-01-16, 03:30:04,VALID,1001,VALID,0,VALID,90.6921,VALID,0,VALID,24.6166,VALID,348,VALID,0.188672,
2012-01-16, 03:31:04,VALID,1001,VALID,0,VALID,90.6921,VALID,0,VALID,24.5758,VALID,348,VALID,0,
2012-01-16, 03:32:04,VALID,1000.99,VALID,0,VALID,90.7303,VALID,0,VALID,24.5777,VALID,348,VALID,0,
2012-01-16, 03:33:04,VALID,1000.98,VALID,0,VALID,90.86,VALID,0,VALID,24.5796,VALID,348,VALID,0,
2012-01-16, 03:34:04,VALID,1000.93,VALID,0,VALID,90.9363,VALID,0,VALID,24.5582,VALID,348,VALID,0,
2012-01-16, 03:35:04,VALID,1000.94,VALID,0,VALID,91.0659,VALID,0.0815089,VALID,24.5582,VALID,348,VALID,0.272656,
2012-01-16, 03:36:04,VALID,1000.96,VALID,0,VALID,91.0507,VALID,0,VALID,24.5582,VALID,348,VALID,0.175391,
2012-01-16, 03:37:04,VALID,1000.92,VALID,0,VALID,91.2414,VALID,0,VALID,24.5582,VALID,348,VALID,0,
2012-01-16, 03:38:04,VALID,1000.92,VALID,0,VALID,91.2872,VALID,0.0815089,VALID,24.5582,VALID,348,VALID,0.189063,
2012-01-16, 03:39:04,VALID,1000.91,VALID,0,VALID,91.2185,VALID,0,VALID,24.5388,VALID,348,VALID,0,
2012-01-16, 03:40:04,VALID,1000.94,VALID,0,VALID,91.2185,VALID,0,VALID,24.5601,VALID,348,VALID,0,
2012-01-16, 03:41:04,VALID,1000.93,VALID,0,VALID,91.3101,VALID,0,VALID,24.5193,VALID,348,VALID,0,
2012-01-16, 03:42:04,VALID,1000.95,VALID,0,VALID,91.3253,VALID,0,VALID,24.5582,VALID,348,VALID,0.291016,
2012-01-16, 03:43:04,VALID,1000.95,VALID,0,VALID,91.3711,VALID,0,VALID,24.5582,VALID,348,VALID,0.158594,
2012-01-16, 03:44:04,VALID,1001,VALID,0,VALID,91.3482,VALID,0.0815089,VALID,24.5777,VALID,348,VALID,0.121875,
2012-01-16, 03:45:04,VALID,1001.02,VALID,0,VALID,91.4169,VALID,0,VALID,24.5777,VALID,348,VALID,0.45,